This demonstration page uses our WeatherBlox Daily Observations layout. Learn more.

Left ArrowRight Arrow

41.86663, -103.66717

Hourly Observations for April 17, 2018

Temp ( °F °C ) Dew Point ( °F °C ) Humidity (%) Winds ( mph kmh ) Pressure ( in mb ) Visibility ( mi km ) Precip ( " mm )
12:53 am 00:53 Clear 41 5 30 -1.1 65 65 E 18 30 29.64 1004 10 16 N/A
1:53 am 01:53 Clear 39 3.9 30 -1.1 70 70 ESE 17 28 29.62 1003 10 16 N/A
2:53 am 02:53 Clear 38 3.3 29 -1.7 70 70 E 18 30 29.60 1002 10 16 N/A
3:53 am 03:53 Clear 37 2.8 29 -1.7 73 73 E 16 26 29.59 1002 10 16 N/A
4:53 am 04:53 Clear 35 1.7 29 -1.7 78 78 ESE 15 24 29.60 1002 10 16 N/A
5:53 am 05:53 Clear 34 1.1 28 -2.2 79 79 ESE 18 30 29.59 1002 10 16 N/A
6:53 am 06:53 Sunny 34 1.1 28 -2.2 79 79 ESE 17 28 29.59 1002 10 16 N/A
7:53 am 07:53 Sunny 37 2.8 29 -1.7 73 73 ESE 20 31 29.59 1002 10 16 N/A
8:53 am 08:53 Sunny 40 4.4 30 -1.1 68 68 ESE 21 33 29.57 1001 10 16 N/A
9:53 am 09:53 Sunny 45 7.2 31 -0.6 58 58 ESE 21 33 29.54 1000 10 16 N/A
10:53 am 10:53 Sunny 49 9.4 32 undefined 52 52 SE 18 30 29.52 1000 10 16 N/A
11:53 am 11:53 Sunny 52 11.1 34 1.1 50 50 ESE 16 26 29.49 999 8 13 N/A
12:53 pm 12:53 Sunny 56 13.3 35 1.7 46 46 ESE 7 11 29.51 999 N/A N/A
1:53 pm 13:53 Cloudy 56 13.3 34 1.1 44 44 WNW 3 6 29.53 1000 10 16 N/A
2:53 pm 14:53 Cloudy 53 11.7 41 5 64 64 NE 7 11 29.58 1002 10 16 0.01 0.25
3:53 pm 15:53 Cloudy 51 10.6 44 6.7 77 77 NE 16 26 29.63 1003 10 16 0.01 0.25
4:27 pm 16:27 Cloudy with Light Rain 48 8.9 43 6.1 83 83 NW 18 30 29.68 1005 6 10 0.01 0.25
4:53 pm 16:53 Cloudy with Light Rain 48 8.9 41 5 77 77 NNW 16 26 29.70 1006 10 16 0.01 0.25
5:53 pm 17:53 Mostly Cloudy 43 6.1 40 4.4 89 89 NNW 15 24 29.80 1009 10 16 N/A
6:43 pm 18:43 Cloudy with Light Rain 42 5.6 39 3.9 89 89 NW 30 48 29.85 1011 9 14 N/A
6:53 pm 18:53 Cloudy with Light Rain 40 4.4 39 3.9 97 97 NW 32 52 29.88 1012 4 6 N/A
7:03 pm 19:03 Cloudy with Light Rain 40 4.4 38 3.3 93 93 NW 32 52 29.94 1014 10 16 N/A
7:51 pm 19:51 Cloudy with Light Rain 37 3 37 3 100 100 NW 28 44 30.00 1016 9 14 0.01 0.25
7:53 pm 19:53 Cloudy with Light Rain 38 3.3 38 3.3 100 100 NW 29 46 29.96 1015 10 16 0.01 0.25
8:05 pm 20:05 Cloudy with Light Rain 38 3.3 38 3.3 100 100 NW 25 41 30.00 1016 10 16 N/A
8:53 pm 20:53 Cloudy 38 3.3 38 3.3 100 100 NW 22 35 30.00 1016 10 16 N/A
9:19 pm 21:19 Partly Cloudy 37 2.8 36 2.2 96 96 NW 18 30 30.03 1017 10 16 N/A
9:53 pm 21:53 Clear 36 2.2 32 undefined 86 86 WNW 17 28 30.01 1016 10 16 N/A
10:53 pm 22:53 Clear 35 1.7 31 -0.6 85 85 WNW 17 28 30.01 1016 10 16 N/A
11:53 pm 23:53 Cloudy 35 1.7 31 -0.6 85 85 WNW 16 26 30.03 1017 10 16 N/A

Powered by AerisWeather